Location: L�beck
(53.8752°N, 10.6787°E)
Time: 22:30:36
(UTC+02:00)

ISS - Visible Passes

Search period start: 20 July 2018 00:00
Search period end: 30 July 2018 00:00
Orbit: 402 x 408 km, 51.6° (Epoch: 20 July)

Date Brightness Start Highest point End Pass type
(mag) Time Alt. Az. Time Alt. Az. Time Alt. Az.
20 Jul -3.6 00:39:21 10° WSW 00:42:31 47° SSE 00:45:43 10° E visible
20 Jul -3.8 02:15:34 10° W 02:18:48 56° S 02:22:03 10° ESE visible
20 Jul -2.8 03:52:07 10° W 03:54:58 27° SSW 03:57:48 10° SSE visible
20 Jul -3.3 23:47:25 10° SW 23:50:30 37° SSE 23:53:35 10° E visible
21 Jul -3.9 01:23:30 10° W 01:26:45 59° S 01:30:00 10° E visible
21 Jul -3.3 02:59:55 10° W 03:02:59 36° SSW 03:06:02 10° SE visible
21 Jul -2.9 22:55:38 10° SW 22:58:30 28° SSE 23:01:23 10° E visible
22 Jul -3.8 00:31:26 10° WSW 00:34:40 57° S 00:37:55 10° E visible
22 Jul -3.6 02:07:46 10° W 02:10:57 45° SSW 02:14:07 10° ESE visible
22 Jul -2.3 03:44:41 10° WSW 03:46:55 17° SSW 03:49:09 10° S visible
22 Jul -3.7 23:39:23 10° WSW 23:42:35 50° S 23:45:48 10° E visible
23 Jul -3.8 01:15:39 10° W 01:18:53 53° S 01:20:49 21° ESE visible
23 Jul -1.9 02:52:15 10° W 02:53:18 16° WSW 02:53:18 16° WSW visible
23 Jul -3.4 22:47:24 10° SW 22:50:30 41° SSE 22:53:38 10° E visible
24 Jul -3.8 00:23:32 10° W 00:26:47 58° S 00:29:05 18° ESE visible
24 Jul -2.4 02:00:00 10° W 02:01:40 23° WSW 02:01:40 23° WSW visible
24 Jul -3.8 23:31:25 10° WSW 23:34:40 58° S 23:37:54 10° E visible
25 Jul -3.4 01:07:47 10° W 01:10:41 41° SSW 01:10:41 41° SSW visible
25 Jul -3.7 22:39:19 10° WSW 22:42:32 53° S 22:45:46 10° E visible
26 Jul -3.7 00:15:37 10° W 00:18:50 51° S 00:19:53 34° SE visible
26 Jul -1.3 01:52:19 10° W 01:52:30 11° W 01:52:30 11° W visible
26 Jul -3.8 23:23:27 10° W 23:26:42 57° S 23:29:10 16° ESE visible
27 Jul -2.3 00:59:58 10° W 01:01:47 23° WSW 01:01:47 23° WSW visible
27 Jul -3.7 22:31:18 10° WSW 22:34:32 59° S 22:37:47 10° E visible
28 Jul -3.3 00:07:42 10° W 00:10:47 38° SSW 00:11:08 37° S visible
28 Jul -3.5 23:15:29 10° W 23:18:40 47° SSW 23:20:31 21° SE visible
29 Jul -1.5 00:52:16 10° W 00:53:09 14° WSW 00:53:09 14° WSW visible
29 Jul -3.6 22:23:16 10° W 22:26:30 55° S 22:29:44 10° ESE visible
